User: anonymous   Login
Location: Caltech
(34.1382°N, 118.1253°W)
Time: 08:39:54
(UTC-08:00)
Language:

Cosmos 1937 Rocket - Orbit

View from above orbital plane
View from above orbital plane
View from above satellite
View from above satellite

Ground track
Ground track

The orbit data is extracted from the following two-line orbital elements,

1 19039U 88029B   18019.81527191  .00000080  00000-0  34866-4 0  9991
2 19039  74.0477 260.5058 0023248  17.3704  30.1125 14.38391551562005
Epoch (UTC): 19 January 2018 19:33:59
Eccentricity: 0.0023248
inclination: 74.0477°
perigee height: 747 km
apogee height: 780 km
right ascension of ascending node: 260.5058°
argument of perigee: 17.3704°
revolutions per day: 14.38391551
mean anomaly at epoch: 30.1125°
orbit number at epoch: 56200

The dashed part of the orbit path shows where the satellite is in the earth's shadow,  

DLR